User: anonymous   Login
Location: Boussy-Saint-Antoine
(48.6830°N, 2.5330°E)
Time: 23:07:40
(UTC+02:00)
Language:

Oscar 11 - Orbit

View from above orbital plane
View from above orbital plane
View from above satellite
View from above satellite

Ground track
Ground track

The orbit data is extracted from the following two-line orbital elements,

1 14781U 84021B   19199.85842346 +.00000038 +00000-0 +10721-4 0  9991
2 14781 097.6091 223.1480 0007580 211.8102 148.2656 14.83095885882236
Epoch (UTC): 18 July 2019 20:36:07
Eccentricity: 0.0007580
inclination: 97.6091°
perigee height: 614 km
apogee height: 625 km
right ascension of ascending node: 223.1480°
argument of perigee: 211.8102°
revolutions per day: 14.83095885
mean anomaly at epoch: 148.2656°
orbit number at epoch: 88223

The dashed part of the orbit path shows where the satellite is in the earth's shadow,  

DLR